Regional Weather Roundup
Issued by NWS Grand Forks, ND

Home | Current Version | Previous Version | Graphics & Text | Print | Product List | Glossary On
Versions: 1 2 3 4 5 6 7 8 9 10 11 12 13 14 15 16 17 18 19 20 21 22 23 24 25 26 27 28 29 30 31 32 33 34 35 36 37 38 39 40 41 42 43 44 45 46 47 48 49 50
000
ASUS43 KFGF 210731
RWRFGF
PRAIRIE TO PINES  WEATHER ROUNDUP
NATIONAL WEATHER SERVICE EASTERN NORTH DAKOTA/GRAND FORKS ND
200 AM CDT MON MAY 21 2018

 **SATELLITE DATA USED TO AUGMENT SKY COVER AT AUTOMATED STATIONS**
 *****  WEATHER ACROSS EASTERN NORTH DAKOTA  *****

CITY           SKY/WX    TMP DP  RH WIND       PRES   REMARKS
GRAND FORKS    FAIR      46  38  73 S5        30.10S
GRAND FRKS AFB FAIR      49  34  57 SW3       30.10F
GRAND FRKS NWS   N/A     51  36  56 S3        30.07F
DEVILS LAKE    FAIR      51  38  60 S3        30.11F
FARGO          FAIR      49  39  68 SE5       30.11S
WAHPETON ARPT  FAIR      50  32  50 E6        30.11F
$$

 ***** WEATHER ACROSS CENTRAL AND WESTERN NORTH DAKOTA  *****

CITY           SKY/WX    TMP DP  RH WIND       PRES   REMARKS
BISMARCK       FAIR      45  39  79 E3        30.10S
MINOT          FAIR      49  35  58 SE7       30.07S
JAMESTOWN      FAIR      51  38  60 SE3       30.09F
MINOT AFB      FAIR      48  35  60 S8        30.06S
GARRISON         N/A     45  36  70 SE3       30.07F
WILLISTON      FAIR      54  37  52 S9        30.02F
DICKINSON      FAIR      41  35  79 SE12      30.03F
HETTINGER      FAIR      43  35  73 SE6       30.06F
$$

 *****  OTHER AIRPORT OBSERVATIONS IN OUR AREA  *****

CITY           SKY/WX    TMP DP  RH WIND       PRES   REMARKS
WALHALLA       FAIR      55  36  47 SW7       30.08S
GRAFTON AIRPOR FAIR      46  41  81 W3        30.12S
VALLEY CITY AR FAIR      52  34  50 CALM      30.12F
CANDO          FAIR      46  39  76 S5        30.11F
CAVALIER APRT    N/A     50  39  66 S6        30.09S
GWINNER          N/A     50  34  53 CALM      30.10F
SHEYENNE NWR     N/A     47  34  61 E5        29.95S
ROLLA          FAIR      48  36  61 SW10      30.10S
 ***** THE ABOVE OBSERVATIONS ARE NON NWS ARE NOT QUALITY
       CONTROLLED AND MAY MIS-REPORT RAIN FOR SNOW...
$$

  *****  WEATHER ACROSS NORTHERN MINNESOTA  *****

CITY           SKY/WX    TMP DP  RH WIND       PRES   REMARKS
FLAG ISLAND    NOT AVBL
WARROAD        NOT AVBL
ROSEAU         NOT AVBL
HALLOCK        NOT AVBL
THF RVR FALLS  FAIR      50  35  56 SE5       30.13F
BAUDETTE       FAIR      45  41  86 CALM      30.13S
WASKISH        FAIR      39  34  81 CALM      30.14
CROOKSTON      NOT AVBL
STEPHEN NDAWN    N/A     46  34  61 SE3         N/A
GREENBUSH NDAW   N/A     48  39  71 S3          N/A
$$
  *****  WEATHER ACROSS CENTRAL AND WEST MINNESOTA  *****

CITY           SKY/WX    TMP DP  RH WIND       PRES   REMARKS
FOSSTON        FAIR      46  32  57 SE5       30.14
BEMIDJI        FAIR      36  33  90 CALM      30.15
PARK RAPIDS    FAIR      45  36  70 NE5       30.14F
ELBOW LAKE     NOT AVBL
WADENA         FAIR      41  36  81 CALM      30.13
DETROIT LAKES  NOT AVBL
MOORHEAD       FAIR      52  34  50 SE5       30.12
FERGUS FALLS   FAIR      52  36  54 E5        30.09
MORRIS MN      NOT AVBL
STAPLES        NOT AVBL
$$
  *****  WEATHER ELSEWHERE ACROSS MINNESOTA  *****

CITY           SKY/WX    TMP DP  RH WIND       PRES   REMARKS
DULUTH         FAIR      44  32  62 CALM      30.17S
INTRNTL FALLS  FAIR      40  38  93 SW3       30.13S
ELY            NOT AVBL
CLOQUET        FAIR      37  28  70 CALM      30.16
WHEATON        NOT AVBL
BRAINERD       FAIR      43  35  73 CALM      30.15F
HIBBING        FAIR      35  33  92 CALM      30.16S
ALEXANDRIA     FAIR      53  35  50 E5        30.13F
SAINT CLOUD    FAIR      45  36  70 CALM      30.13F
MINNEAPOLIS    MOCLDY    61  40  45 SE6       30.14S
$$

  *****  WEATHER ACROSS SOUTH DAKOTA  *****

CITY           SKY/WX    TMP DP  RH WIND       PRES   REMARKS
SIOUX FALLS    CLOUDY    55  55 100 CALM      30.07F FOG
BROOKINGS      CLOUDY    55  52  89 N5        30.09F
WATERTOWN      LGT RAIN  57  49  74 CALM      30.09F
HURON          CLOUDY    54  52  93 SE6       30.08F
SISSETON         N/A     51  36  56 NW3       30.09F
ABERDEEN       CLOUDY    61  37  41 E8        30.08F
MITCHELL       CLOUDY    56  51  84 E6        30.08F
PIERRE         CLOUDY    55  38  52 CALM      30.06F
MOBRIDGE       CLOUDY    55  44  66 CALM      30.06F
RAPID CITY     FAIR      43  38  82 SE3       30.04F
$$

  *****  SOME WEATHER IN NEARBY STATES *****

CITY           SKY/WX    TMP DP  RH WIND       PRES   REMARKS
GLASGOW MT     FAIR      53  40  61 E13       29.91F
GREAT FALLS MT FAIR      52  44  74 SW8       29.89S
CHEYENNE WY    MOCLDY    45  44  97 S7        30.09F
SCOTTSBLUFF NE FAIR      48  46  93 SE7       30.07S
OMAHA NE       CLOUDY    58  56  93 W6        30.05S
DES MOINES IA  LGT RAIN  58  57  97 NE8       30.05F FOG
DAVENPORT IA   LGT RAIN  54  52  93 E10       30.11F FOG
CHICAGO IL     CLOUDY    49  42  77 NE8       30.15F
EAU CLAIRE WI  FAIR      47  43  86 NE3       30.17S
LA CROSSE WI   CLOUDY    58  50  75 E6        30.15F
$$

  *****  SOME NATIONAL WEATHER *****

CITY           SKY/WX    TMP DP  RH WIND       PRES   REMARKS
LA GUARDIA NY  FAIR      63  53  70 N5        30.08S
RALEIGH NC     MOCLDY    70  70 100 SW8       30.10F
ATLANTA GA     MOCLDY    68  63  84 SE3       30.14F
NEW ORLEANS LA FAIR      74  72  93 CALM      29.99F
OKLAHOMA CITY  FAIR      62  60  93 NE8       30.06S
ALBUQUERQUE NM FAIR      67  44  43 E14       30.05R
SALT LAKE CITY FAIR      59  49  69 SE6       29.90F
LOS ANGELES CA CLOUDY    59  53  80 W9        29.89S
BOISE ID       CLOUDY    58  55  90 S5        29.90R
SEATTLE WA     MOCLDY    56  50  80 N8        30.06S
$$

*** WEATHER ACROSS MANITOBA...SASKATCHEWAN AND ONTARIO ***
                ***ONTARIO***

CITY           SKY/WX    TMP DP  RH WIND       PRES   REMARKS
GERALDTON      CLEAR     48  37  66 VRB2      30.07F
THUNDER BAY    NOT AVBL
SIOUX LOOKOUT  CLEAR     52  32  46 S5        30.09F
TORONTO        CLEAR     48  30  49 N8        30.19S
BIG TROUT LK   RAIN      41  36  81 E5        30.04S
PICKLE LAKE    NOT AVBL
DRYDEN         CLEAR     55  30  38 SW7       30.11S
KENORA         CLEAR     55  34  44 SW6       30.11S
$$
                *** MANITOBA***

CITY           SKY/WX    TMP DP  RH WIND       PRES   REMARKS
BRANDON        CLEAR     48  30  49 SW7       30.05S
DAUPHIN        CLEAR     61  30  31 SW12      30.00R
ISLAND LAKE    CLEAR     48  39  71 SE7       29.97S
PILOT MOUND      N/A     46  36  66 S9          N/A
THE PAS        CLEAR     55  36  47 SE5       29.89F
THOMPSON       CLEAR     43  34  70 E3        29.92S
WINNIPEG       CLEAR     59  36  41 SW13      30.07S
LYNN LAKE      CLEAR     41  34  75 E8        29.87F
CHURCHILL      CLOUDY    23  18  80 NE6       30.12S WCI  16
GILLAM         CLOUDY    34  28  80 E5        30.03R
$$
                ***SASKATCHEWAN***

CITY           SKY/WX    TMP DP  RH WIND       PRES   REMARKS
ESTEVAN        CLEAR     46  30  53 SE10      30.03S
KINDERSLEY     PTCLDY    59  41  51 S7        29.77S
LLOYDMINSTER   MOCLDY    54  43  66 CALM      29.75S
PRINCE ALBERT  CLEAR     50  32  50 SE5       29.85S
REGINA         PTCLDY    54  30  40 S15       29.95S
YORKTON        CLEAR     52  34  50 S7        29.98S
N. BATTLEFORD  CLEAR     55  45  67 SE8       29.78S
LA RONGE       CLEAR     55  37  50 SE6       29.83F
SASKATOON      PTCLDY    63  37  39 S17       29.82F
SWIFT CURRENT  CLEAR     54  39  58 S17       29.85F
$$
NOTE: THESE ARE AUTOMATED STATIONS WITH LIMITED QUALITY CONTROL
      "FAIR" INDICATES FEW OR NO CLOUDS BELOW 12,000 FEET WITH NO
      SIGNIFICANT WEATHER AND/OR OBSTRUCTIONS TO VISIBILITY.
      SKY/WX - SKY CONDITION AND SIGNIFICANT WEATHER.
      TMP - AIR TEMPERATURE.    DP   - DEWPOINT TEMPERATURE.
      RH  - RELATIVE HUMIDITY.  PRES - PRESSURE.
      HX  - HEAT INDEX.         WCI  - WIND CHILL INDEX.
$



USA.gov is the U.S. government's official web portal to all federal, state and local government web resources and services.